Overview Statistics Trail Chart Weather Telemetry Raw packets
 

This is the latest recevied weather packets stored in our database for station/object N0NB. If no packets are shown the sender has not sent any weather packets the latest 10 day(s).

<< 52 53 54 55 56 57 58 >>
Time Temp. Humidity Pressure Rain* Wind** Luminosity Snow
1787847616 27.22° C 62% 1020.4 hPa 0 mm - 659 W/m² -
1787847016 26.67° C 68% 1020.5 hPa 0 mm - 646 W/m² -
1787846416 26.11° C 64% 1020.3 hPa 0 mm - 620 W/m² -
1787845816 25.56° C 69% 1020.4 hPa 0 mm - 596 W/m² -
1787845216 25.56° C 74% 1020.4 hPa 0 mm - 574 W/m² -
1787844616 25.56° C 73% 1020.3 hPa 0 mm - 550 W/m² -
1787844016 25° C 72% 1020.3 hPa 0 mm - 526 W/m² -
1787843416 24.44° C 76% 1020.1 hPa 0 mm - 495 W/m² -
1787842816 23.89° C 78% 1020.1 hPa 0 mm - 469 W/m² -
1787842216 23.33° C 80% 1020.1 hPa 0 mm - 440 W/m² -
1787841616 22.78° C 83% 1020.1 hPa 0 mm - 411 W/m² -
1787841016 22.78° C 81% 1020 hPa 0 mm - 383 W/m² -
1787840415 22.22° C 82% 1019.7 hPa 0 mm - 353 W/m² -
1787839815 21.67° C 86% 1019.4 hPa 0 mm - 318 W/m² -
1787839215 20.56° C 87% 1019.4 hPa 0 mm - 286 W/m² -
1787838615 20° C 90% 1019.4 hPa 0 mm - 248 W/m² -
1787838015 19.44° C 91% 1019.4 hPa 0 mm - 201 W/m² -
1787837415 18.89° C 93% 1019.3 hPa 0 mm - 167 W/m² -
1787836816 18.33° C 95% 1019.4 hPa 0 mm - 149 W/m² -
1787836215 17.78° C 97% 1019.2 hPa 0 mm - 133 W/m² -
1787835615 17.22° C 97% 1019.2 hPa 0 mm - 97 W/m² -
1787835015 16.67° C 97% 1019.3 hPa 0 mm - 71 W/m² -
1787834415 16.11° C 97% 1019.2 hPa 0 mm - 57 W/m² -
1787833815 15.56° C 97% 1019 hPa 0 mm - 41 W/m² -
1787833215 15.56° C 97% 1019 hPa 0 mm - 24 W/m² -

* Rain latest hour (hover to see other rain measurements)
** Current wind speed in m/s (hover to see current wind gust speed)